"startDT [UTC]","vpos","CH4 [ppm]","stdev(CH4) [ppm]","CO2 [ppm]","stdev(CO2) [ppm]","H2O [ppm]","stdev(H2O)","p_LGR [torr]","T_LGR [C]","mt1_LGR [us]","mt2_LGR [us]","T_ECpre [C]","T_EC1 [C]","T_EC2 [C]","p_inlet [hPa]","p_in [hPa]","p_out [hPa]","T_inlet [C]","RH_inlet [%]","dwpt_inlet [C]","T_vent [C]","RH_vent [%]","dwpt_vent [C]","flow_vent [l min-1]","flow_inlet [l min-1]","dwpt_sample [C]","T_room [C]"
2012-07-23 00:00:00,0.0,1.8853,0.0011,382.25,0.27,46.1,32.5,138.07,31.18,24.65,36.42,1.03,-25.81,5.65,-47,544,-938,25.9,21.2,2.0,25.8,1.6,-29.5,5.73,2.45,-27.4,30.1
2012-07-23 00:01:00,0.0,1.8858,0.0009,382.40,0.26,48.8,36.8,138.07,31.18,24.65,36.42,1.10,-25.81,3.60,-47,544,-938,25.9,20.9,1.8,25.8,1.6,-29.6,5.73,2.46,-27.4,30.1
2012-07-23 00:02:00,0.0,1.8862,0.0010,382.15,0.35,40.5,28.9,138.07,31.18,24.65,36.42,1.01,-25.81,1.65,-47,544,-937,25.9,21.3,2.1,25.7,1.6,-29.6,5.73,2.46,-27.4,30.1
2012-07-23 00:03:00,0.0,1.8844,0.0011,382.59,0.30,40.0,27.4,138.07,31.18,24.65,36.42,1.01,-25.81,-0.19,-47,545,-938,25.9,21.1,2.0,25.8,1.6,-29.6,5.73,2.46,-27.4,30.0
2012-07-23 00:04:00,0.0,1.8848,0.0009,382.55,0.43,39.4,34.3,138.07,31.18,24.65,36.42,1.09,-25.80,-1.92,-47,545,-938,25.9,20.6,1.6,25.8,1.6,-29.6,5.73,2.46,-27.4,30.0
2012-07-23 00:05:00,0.0,1.8845,0.0011,383.42,0.33,39.7,34.0,138.07,31.18,24.65,36.41,1.02,-25.80,-3.50,-47,545,-937,25.9,20.0,1.2,25.8,1.6,-29.6,5.73,2.46,-27.5,30.0
2012-07-23 00:06:00,0.0,1.8848,0.0012,382.77,0.33,41.8,30.0,138.07,31.18,24.65,36.42,0.97,-25.80,-4.66,-47,545,-938,25.9,20.6,1.6,25.8,1.6,-29.6,5.73,2.46,-27.5,30.0
2012-07-23 00:07:00,0.0,1.8850,0.0009,382.89,0.26,46.3,34.1,138.07,31.18,24.65,36.42,1.06,-25.80,-5.94,-47,545,-938,25.9,20.3,1.4,25.8,1.6,-29.5,5.73,2.45,-27.5,30.0
2012-07-23 00:08:00,0.0,1.8860,0.0014,382.34,0.34,44.1,32.5,138.07,31.18,24.65,36.42,1.07,-25.80,-7.11,-47,545,-937,25.9,21.1,1.9,25.8,1.6,-29.5,5.73,2.45,-27.5,30.0
2012-07-23 00:09:00,0.0,1.8859,0.0010,382.31,0.36,40.1,28.8,138.07,31.18,24.65,36.42,0.97,-25.81,-8.30,-47,545,-938,25.9,20.8,1.8,25.8,1.6,-29.5,5.73,2.45,-27.5,30.0
2012-07-23 00:10:00,0.0,1.8857,0.0010,382.33,0.27,41.4,32.2,138.07,31.18,24.65,36.42,1.00,-25.81,-9.46,-47,545,-938,25.9,21.3,2.1,25.8,1.6,-29.5,5.73,2.45,-27.5,30.0
2012-07-23 00:11:00,0.0,1.8858,0.0013,382.39,0.38,36.2,30.4,138.07,31.18,24.65,36.42,1.09,-25.82,-10.48,-47,545,-938,25.9,20.7,1.7,25.8,1.6,-29.5,5.73,2.45,-27.5,30.0
2012-07-23 00:12:00,0.0,1.8849,0.0011,382.67,0.30,51.7,34.2,138.07,31.18,24.65,36.42,1.02,-25.83,-11.59,-47,545,-937,25.9,20.8,1.8,25.8,1.6,-29.6,5.73,2.45,-27.5,30.1
2012-07-23 00:13:00,0.0,1.8859,0.0011,381.97,0.33,34.6,32.8,138.07,31.17,24.65,36.43,0.96,-25.84,-12.64,-47,545,-938,25.9,21.7,2.4,25.8,1.6,-29.5,5.73,2.44,-27.5,30.0
2012-07-23 00:14:00,0.0,1.8867,0.0010,381.60,0.34,36.2,33.9,138.07,31.17,24.65,36.43,1.02,-25.84,-13.57,-47,545,-938,25.9,21.4,2.2,25.8,1.6,-29.5,5.73,2.45,-27.5,30.0
2012-07-23 00:15:00,0.0,1.8869,0.0014,382.12,0.31,36.3,36.6,138.07,31.17,24.65,36.41,1.08,-25.85,-14.50,-47,545,-937,25.9,21.0,1.9,25.8,1.6,-29.5,5.73,2.45,-27.4,30.0
2012-07-23 00:16:00,0.0,1.8880,0.0011,382.01,0.30,36.3,29.8,138.07,31.18,24.65,36.42,1.01,-25.87,-15.35,-47,545,-938,25.9,21.2,2.1,25.8,1.6,-29.6,5.73,2.44,-27.5,30.0
2012-07-23 00:17:00,0.0,1.8861,0.0016,382.26,0.44,40.5,34.1,138.07,31.18,24.65,36.42,0.96,-25.88,-16.22,-47,545,-938,25.9,20.8,1.8,25.8,1.6,-29.5,5.73,2.45,-27.5,30.0
2012-07-23 00:18:00,0.0,1.8857,0.0013,382.40,0.30,49.6,37.9,138.07,31.17,24.65,36.42,1.03,-25.89,-17.00,-47,545,-938,25.9,20.9,1.8,25.8,1.6,-29.6,5.73,2.45,-27.4,30.0
2012-07-23 00:19:00,0.0,1.8860,0.0011,382.43,0.28,45.6,32.6,138.07,31.18,24.65,36.42,1.04,-25.89,-17.65,-47,545,-937,25.9,20.9,1.9,25.8,1.6,-29.8,5.73,2.45,-27.4,30.0
2012-07-23 00:20:00,0.0,1.8856,0.0011,382.19,0.30,40.1,35.3,138.07,31.18,24.65,36.42,1.02,-25.91,-18.36,-47,545,-937,25.9,21.3,2.1,25.8,1.6,-29.7,5.73,2.45,-27.5,30.0
2012-07-23 00:21:00,0.0,1.8863,0.0013,382.31,0.32,35.3,32.2,138.07,31.18,24.65,36.42,0.97,-25.92,-19.03,-47,545,-938,25.9,21.0,1.9,25.8,1.6,-29.7,5.73,2.45,-27.4,30.0
2012-07-23 00:22:00,0.0,1.8856,0.0010,382.22,0.37,46.6,30.4,138.07,31.18,24.64,36.42,1.04,-25.93,-19.66,-47,545,-938,25.9,21.7,2.4,25.9,1.6,-29.7,5.73,2.45,-27.4,30.0
2012-07-23 00:23:00,0.0,1.8864,0.0012,382.41,0.37,34.0,31.9,138.07,31.17,24.65,36.42,1.05,-25.95,-20.26,-47,545,-937,25.9,21.3,2.1,25.9,1.6,-29.7,5.73,2.45,-27.5,30.0
2012-07-23 00:24:00,0.0,1.8863,0.0014,382.55,0.47,50.2,31.9,138.07,31.17,24.64,36.42,0.98,-25.96,-20.81,-47,545,-937,25.9,20.5,1.6,25.8,1.6,-29.7,5.73,2.45,-27.4,30.0
2012-07-23 00:25:00,0.0,1.8835,0.0010,383.76,0.27,45.3,34.3,138.07,31.17,24.65,36.42,0.97,-25.98,-21.32,-47,545,-938,25.9,19.3,0.7,25.9,1.6,-29.7,5.73,2.45,-27.5,30.0
2012-07-23 00:26:00,0.0,1.8845,0.0009,383.24,0.37,45.7,30.1,138.07,31.17,24.65,36.42,1.05,-25.99,-21.80,-47,545,-938,25.9,20.5,1.6,25.9,1.6,-29.7,5.73,2.45,-27.5,30.1
2012-07-23 00:27:00,0.0,1.8861,0.0012,382.71,0.26,43.7,30.0,138.07,31.17,24.65,36.41,1.04,-26.01,-22.25,-47,545,-938,25.9,20.8,1.8,25.9,1.6,-29.7,5.73,2.45,-27.4,30.0
2012-07-23 00:28:00,0.0,1.8855,0.0010,382.65,0.30,50.5,33.8,138.07,31.17,24.65,36.42,0.97,-26.02,-22.67,-47,545,-937,25.9,20.7,1.8,25.9,1.5,-29.9,5.73,2.45,-27.5,30.0
2012-07-23 00:29:00,0.0,1.8871,0.0010,382.07,0.33,47.4,33.0,138.07,31.17,24.65,36.42,0.97,-26.03,-23.07,-47,545,-937,25.9,21.5,2.2,25.9,1.5,-29.9,5.73,2.46,-27.4,30.0
2012-07-23 00:30:00,0.0,1.8883,0.0014,381.89,0.29,40.0,28.7,138.07,31.17,24.65,36.42,1.02,-26.05,-23.46,-47,545,-938,25.9,21.6,2.3,25.9,1.5,-29.9,5.73,2.45,-27.4,30.0
2012-07-23 00:31:00,0.0,1.8879,0.0012,382.24,0.30,35.8,33.5,138.07,31.17,24.65,36.42,1.05,-26.06,-23.82,-47,545,-938,26.0,21.0,2.0,25.9,1.5,-29.9,5.73,2.45,-27.4,30.0
2012-07-23 00:32:00,0.0,1.8878,0.0011,382.32,0.40,42.9,37.2,138.07,31.17,24.65,36.42,1.01,-26.07,-24.15,-47,545,-937,25.9,20.9,1.9,25.9,1.5,-29.9,5.73,2.45,-27.4,30.0
2012-07-23 00:33:00,0.0,1.8864,0.0011,382.75,0.26,37.5,36.3,138.07,31.17,24.65,36.42,0.95,-26.09,-24.47,-47,545,-937,26.0,20.7,1.7,25.9,1.5,-29.9,5.73,2.45,-27.4,30.0
2012-07-23 00:34:00,0.0,1.8898,0.0015,382.12,0.32,45.5,32.4,138.07,31.16,24.64,36.42,1.00,-26.10,-24.77,-47,545,-938,26.0,21.2,2.1,25.9,1.5,-29.9,5.73,2.44,-27.5,30.0
2012-07-23 00:35:00,0.0,1.8868,0.0014,382.58,0.33,36.7,29.1,138.07,31.16,24.65,36.43,1.05,-26.11,-25.05,-47,545,-938,25.9,20.7,1.7,25.9,1.5,-29.9,5.73,2.45,-27.4,30.0
2012-07-23 00:36:00,0.0,1.8855,0.0012,382.81,0.32,49.0,30.2,138.07,31.16,24.65,36.42,1.03,-26.12,-25.32,-47,545,-937,25.9,20.6,1.7,25.9,1.5,-29.9,5.73,2.45,-27.4,30.0
2012-07-23 00:37:00,0.0,1.8882,0.0015,382.44,0.38,39.5,32.0,138.07,31.16,24.65,36.42,0.97,-26.13,-25.58,-47,546,-937,25.9,21.1,2.0,25.9,1.5,-29.9,5.73,2.45,-27.4,30.0
2012-07-23 00:38:00,0.0,1.8871,0.0023,382.43,0.64,37.9,32.6,138.07,31.16,24.65,36.42,0.97,-26.14,-25.81,-47,545,-938,26.0,20.3,1.5,25.9,1.5,-29.9,5.73,2.45,-27.4,30.0
2012-07-23 00:39:00,0.0,1.8841,0.0010,383.71,0.28,39.5,31.2,138.07,31.17,24.65,36.41,1.01,-26.15,-26.03,-47,546,-938,26.0,19.5,0.9,25.9,1.5,-29.9,5.73,2.45,-27.5,30.0
2012-07-23 00:40:00,0.0,1.8832,0.0011,383.65,0.32,39.7,31.0,138.07,31.17,24.65,36.41,0.98,-26.17,-26.12,-47,546,-938,25.9,19.3,0.8,25.9,1.5,-29.9,5.73,2.45,-27.5,30.0
2012-07-23 00:41:00,0.0,1.8844,0.0009,383.37,0.34,40.3,32.1,138.07,31.17,24.65,36.42,1.05,-26.17,-25.90,-47,545,-937,26.0,19.7,1.0,25.9,1.5,-29.8,5.73,2.45,-27.5,30.0
2012-07-23 00:42:00,0.0,1.8839,0.0012,383.29,0.30,49.6,32.4,138.07,31.17,24.65,36.42,1.03,-26.18,-26.03,-47,545,-937,26.0,19.8,1.1,25.9,1.5,-29.9,5.73,2.45,-27.5,30.0
2012-07-23 00:43:00,0.0,1.8827,0.0015,383.97,0.62,39.6,34.8,138.07,31.16,24.65,36.42,0.95,-26.19,-26.19,-47,545,-938,26.0,18.7,0.3,25.9,1.5,-30.0,5.73,2.45,-27.5,30.0
2012-07-23 00:44:00,0.0,1.8821,0.0011,384.05,0.26,46.3,32.7,138.07,31.16,24.65,36.43,0.98,-26.21,-25.96,-47,545,-938,26.0,18.8,0.4,25.9,1.5,-30.0,5.73,2.45,-27.5,30.0
2012-07-23 00:45:00,0.0,1.8825,0.0012,384.23,0.37,43.1,33.9,138.07,31.16,24.65,36.41,0.97,-26.22,-25.99,-47,545,-938,25.9,18.7,0.3,25.9,1.5,-30.1,5.73,2.45,-27.5,30.0
2012-07-23 00:46:00,0.0,1.8834,0.0009,383.74,0.32,37.2,30.3,138.07,31.16,24.65,36.42,1.04,-26.23,-26.17,-47,545,-937,25.9,18.7,0.3,25.9,1.5,-30.0,5.73,2.45,-27.5,30.1
2012-07-23 00:47:00,0.0,1.8827,0.0014,384.35,0.32,42.2,31.6,138.07,31.16,24.65,36.41,0.90,-26.24,-26.13,-47,546,-937,26.0,18.4,0.1,25.9,1.5,-30.0,5.73,2.45,-27.5,30.1
2012-07-23 00:48:00,0.0,1.8822,0.0010,384.45,0.34,45.7,35.5,138.07,31.16,24.65,36.42,1.04,-26.25,-25.99,-47,546,-938,26.0,18.0,-0.2,25.9,1.5,-30.1,5.73,2.45,-27.5,30.0
2012-07-23 00:49:00,0.0,1.8829,0.0010,384.21,0.35,41.3,27.7,138.07,31.16,24.65,36.42,1.02,-26.26,-26.14,-47,545,-938,26.0,18.6,0.2,25.9,1.5,-30.0,5.73,2.45,-27.5,30.1
2012-07-23 00:50:00,0.0,1.8840,0.0011,383.38,0.38,40.8,28.8,138.07,31.16,24.65,36.42,0.91,-26.27,-26.26,-47,545,-938,26.0,18.9,0.5,25.9,1.5,-30.1,5.73,2.45,-27.5,30.1
2012-07-23 00:51:00,0.0,1.8832,0.0009,384.05,0.28,42.5,31.1,138.07,31.16,24.65,36.42,0.97,-26.28,-26.01,-47,546,-937,26.0,18.7,0.3,25.9,1.5,-30.1,5.73,2.45,-27.5,30.1
2012-07-23 00:52:00,0.0,1.8829,0.0010,383.66,0.35,47.0,33.7,138.07,31.16,24.65,36.42,1.00,-26.29,-26.10,-47,546,-937,26.0,19.2,0.7,25.9,1.5,-30.0,5.73,2.45,-27.5,30.1
2012-07-23 00:53:00,0.0,1.8836,0.0010,383.67,0.23,36.0,30.9,138.07,31.16,24.64,36.41,0.94,-26.19,-26.27,-47,546,-938,26.0,19.3,0.8,25.9,1.5,-30.1,5.73,2.46,-27.5,30.1
2012-07-23 00:54:00,0.0,1.8825,0.0010,383.88,0.37,41.5,28.8,138.07,31.16,24.65,36.43,0.93,-24.95,-26.45,-47,546,-938,26.0,18.8,0.4,25.9,1.5,-30.4,5.73,2.45,-27.5,30.0
2012-07-23 00:55:00,0.0,1.8816,0.0012,384.23,0.39,41.1,29.9,138.07,31.16,24.65,36.42,0.96,-23.04,-26.58,-47,546,-938,26.0,18.6,0.3,25.9,1.6,-29.4,5.73,2.45,-27.5,30.0
2012-07-23 00:56:00,0.0,1.8824,0.0010,384.04,0.27,39.1,29.5,138.07,31.15,24.65,36.42,0.95,-21.09,-26.66,-47,546,-937,26.0,19.1,0.7,25.9,1.7,-28.6,5.73,2.45,-27.5,30.0
2012-07-23 00:57:00,0.0,1.8828,0.0012,383.71,0.32,43.3,28.4,138.07,31.15,24.65,36.42,0.90,-19.20,-26.70,-47,546,-937,26.0,19.5,0.9,25.9,1.8,-28.2,5.73,2.45,-27.5,30.0
2012-07-23 00:58:00,0.0,1.8825,0.0011,383.76,0.33,42.1,30.7,138.07,31.15,24.65,36.43,0.86,-17.40,-26.72,-47,546,-937,26.0,19.3,0.8,25.9,1.8,-28.1,5.73,2.45,-27.5,30.0
2012-07-23 00:59:00,0.0,1.8828,0.0011,383.51,0.37,46.5,35.0,138.07,31.15,24.65,36.42,0.86,-15.69,-26.73,-47,546,-937,26.0,19.9,1.2,25.9,1.8,-28.2,5.73,2.45,-27.5,30.0
2012-07-23 01:00:00,0.0,1.8837,0.0015,383.49,0.30,39.7,32.7,138.07,31.15,24.65,36.42,0.90,-14.07,-26.73,-47,545,-938,26.0,19.9,1.2,25.9,1.8,-28.4,5.73,2.45,-27.5,30.0
2012-07-23 01:01:00,0.0,1.8828,0.0011,383.77,0.35,33.3,31.4,138.07,31.15,24.65,36.43,0.92,-12.54,-26.73,-47,545,-938,26.0,19.4,0.8,25.9,1.8,-28.4,5.73,2.45,-27.5,30.1
2012-07-23 01:02:00,0.0,1.8834,0.0010,383.60,0.30,32.8,28.7,138.07,31.15,24.65,36.42,0.94,-11.09,-26.72,-47,545,-938,26.0,19.9,1.2,25.9,1.7,-28.6,5.73,2.44,-27.5,30.1
2012-07-23 01:03:00,0.0,1.8841,0.0014,383.31,0.34,40.6,32.8,138.07,31.15,24.65,36.42,0.96,-9.73,-26.72,-47,545,-937,26.0,20.2,1.4,25.9,1.7,-28.7,5.73,2.45,-27.5,30.1
2012-07-23 01:04:00,0.0,1.8835,0.0012,383.77,0.32,37.0,32.8,138.07,31.15,24.65,36.42,0.94,-8.43,-26.71,-47,546,-937,26.0,19.8,1.1,25.9,1.7,-28.8,5.73,2.45,-27.5,30.1
2012-07-23 01:05:00,0.0,1.8836,0.0010,383.41,0.29,41.8,33.3,138.07,31.15,24.64,36.43,0.88,-7.19,-26.70,-47,545,-937,26.0,20.3,1.5,25.9,1.7,-28.9,5.73,2.44,-27.2,30.1
2012-07-23 01:06:00,0.0,1.8839,0.0015,383.73,0.43,44.1,33.7,138.07,31.16,24.65,36.42,0.87,-6.01,-26.70,-47,545,-937,26.0,19.6,1.0,26.0,1.6,-29.1,5.73,2.44,-27.1,30.1
2012-07-23 01:07:00,0.0,1.8823,0.0010,384.37,0.34,48.0,37.9,138.07,31.16,24.65,36.41,0.87,-4.88,-26.70,-47,546,-937,26.0,19.1,0.7,26.0,1.6,-29.1,5.73,2.44,-27.1,30.1
2012-07-23 01:08:00,0.0,1.8819,0.0009,384.36,0.30,42.3,32.6,138.07,31.16,24.65,36.42,0.91,-3.82,-26.69,-47,546,-937,26.0,19.0,0.6,26.0,1.6,-29.3,5.73,2.45,-27.1,30.1
2012-07-23 01:09:00,0.0,1.8824,0.0012,384.35,0.34,38.9,32.5,138.07,31.16,24.65,36.42,0.92,-2.81,-26.68,-47,546,-937,26.0,19.2,0.7,26.0,1.6,-29.3,5.73,2.45,-27.1,30.1
2012-07-23 01:10:00,0.0,1.8822,0.0009,384.34,0.26,40.2,30.4,138.07,31.16,24.64,36.42,0.92,-1.85,-26.67,-47,546,-937,26.0,19.2,0.7,26.0,1.6,-29.4,5.73,2.45,-27.1,30.1
2012-07-23 01:11:00,0.0,1.8825,0.0010,384.22,0.33,51.3,33.1,138.07,31.16,24.64,36.42,0.94,-0.95,-26.67,-47,546,-937,26.0,19.6,1.0,26.0,1.6,-29.5,5.73,2.45,-27.0,30.1
2012-07-23 01:12:00,0.0,1.8827,0.0011,384.08,0.38,36.5,26.9,138.07,31.16,24.65,36.42,0.95,-0.09,-26.65,-47,546,-937,26.0,19.5,0.9,26.0,1.6,-29.5,5.73,2.45,-27.0,30.1
2012-07-23 01:13:00,0.0,1.8826,0.0009,383.89,0.35,40.1,31.0,138.07,31.16,24.65,36.42,0.94,0.72,-26.64,-47,546,-937,26.0,20.0,1.3,26.0,1.6,-29.7,5.73,2.45,-27.0,30.1
2012-07-23 01:14:00,0.0,1.8831,0.0010,384.11,0.29,34.4,29.1,138.07,31.17,24.65,36.42,0.95,1.48,-26.64,-47,546,-937,26.0,19.5,1.0,26.0,1.6,-29.7,5.73,2.46,-27.0,30.2
2012-07-23 01:15:00,0.0,1.8828,0.0014,384.14,0.37,46.0,32.9,138.07,31.17,24.65,36.42,0.93,2.19,-26.62,-47,546,-937,26.0,19.4,0.9,26.0,1.5,-29.8,5.73,2.45,-27.0,30.1
2012-07-23 01:16:00,0.0,1.8821,0.0016,384.34,0.31,42.1,29.3,138.07,31.16,24.65,36.42,0.90,2.71,-26.61,-47,546,-937,26.0,18.7,0.4,26.0,1.5,-29.8,5.73,2.45,-27.0,30.1
2012-07-23 01:17:00,0.0,1.8824,0.0013,384.45,0.39,35.3,28.9,138.07,31.16,24.65,36.41,0.91,2.88,-26.59,-47,546,-937,26.0,19.3,0.8,26.0,1.5,-29.9,5.73,2.45,-27.0,30.1
2012-07-23 01:18:00,0.0,1.8831,0.0011,383.98,0.44,36.9,31.4,138.07,31.17,24.65,36.42,0.91,3.07,-26.59,-47,546,-937,26.0,19.4,0.9,26.0,1.5,-29.8,5.73,2.44,-27.0,30.1
2012-07-23 01:19:00,0.0,1.8827,0.0009,384.14,0.32,37.5,29.5,138.07,31.17,24.65,36.42,0.91,3.48,-26.57,-47,546,-937,26.0,19.0,0.6,26.0,1.5,-30.0,5.73,2.44,-27.0,30.1
2012-07-23 01:20:00,0.0,1.8820,0.0013,384.81,0.33,43.8,33.5,138.07,31.17,24.65,36.41,0.92,4.03,-26.56,-47,546,-936,26.0,18.3,0.1,26.0,1.5,-30.1,5.73,2.44,-27.0,30.1
2012-07-23 01:21:00,0.0,1.8818,0.0011,384.66,0.32,46.5,32.2,138.07,31.17,24.65,36.42,0.93,4.58,-26.55,-47,546,-936,26.0,18.2,0.0,26.0,1.5,-30.0,5.73,2.44,-27.0,30.1
2012-07-23 01:22:00,0.0,1.8824,0.0010,384.59,0.33,44.1,37.9,138.07,31.17,24.65,36.42,0.93,5.10,-26.54,-47,546,-936,26.0,18.3,0.1,26.0,1.5,-30.0,5.73,2.44,-27.0,30.1
2012-07-23 01:23:00,0.0,1.8815,0.0011,384.59,0.30,50.2,32.1,138.07,31.17,24.65,36.42,0.93,5.61,-26.53,-47,546,-937,26.0,18.3,0.1,26.0,1.5,-30.0,5.73,2.44,-27.0,30.2
2012-07-23 01:24:00,0.0,1.8822,0.0011,384.76,0.30,46.4,34.4,138.07,31.17,24.65,36.42,0.94,6.10,-26.52,-47,546,-937,26.0,18.0,-0.1,26.0,1.5,-30.0,5.73,2.44,-27.0,30.2
2012-07-23 01:25:00,0.0,1.8811,0.0009,385.01,0.27,45.1,31.7,138.07,31.17,24.65,36.42,0.94,6.56,-26.50,-47,546,-937,26.0,18.1,-0.1,26.0,1.5,-30.0,5.73,2.45,-27.0,30.2
2012-07-23 01:26:00,0.0,1.8816,0.0012,384.49,0.33,40.4,32.3,138.07,31.17,24.65,36.42,0.95,7.01,-26.49,-47,546,-937,26.0,18.8,0.5,26.0,1.5,-30.0,5.73,2.45,-27.0,30.2
2012-07-23 01:27:00,0.0,1.8825,0.0010,384.08,0.33,42.4,34.1,138.07,31.17,24.65,36.42,0.96,7.44,-26.48,-47,546,-937,26.0,19.7,1.1,26.0,1.5,-30.0,5.73,2.45,-27.0,30.2
2012-07-23 01:28:00,0.0,1.8820,0.0009,384.06,0.34,39.7,30.2,138.06,31.18,24.65,36.42,0.96,7.85,-26.47,-47,546,-937,26.0,19.9,1.2,26.0,1.5,-30.0,5.73,2.45,-27.0,30.2
2012-07-23 01:29:00,0.0,1.8836,0.0013,383.54,0.38,38.1,29.2,138.07,31.18,24.65,36.42,0.95,8.24,-26.46,-47,546,-937,26.1,19.6,1.1,26.0,1.5,-30.0,5.73,2.45,-27.0,30.2
2012-07-23 01:30:00,0.0,1.8826,0.0011,384.22,0.28,48.1,36.0,138.07,31.18,24.65,36.42,0.95,8.62,-26.44,-47,546,-937,26.1,19.2,0.8,26.0,1.5,-30.2,5.73,2.44,-27.0,30.2
2012-07-23 01:31:00,0.0,1.8814,0.0009,384.44,0.30,47.3,35.0,138.07,31.18,24.64,36.43,0.94,8.98,-26.44,-47,546,-937,26.1,18.9,0.6,26.0,1.5,-30.2,5.73,2.44,-27.0,30.2
2012-07-23 01:32:00,0.0,1.8814,0.0009,384.54,0.26,52.2,32.2,138.07,31.18,24.65,36.42,0.94,9.34,-26.42,-47,546,-936,26.1,18.9,0.6,26.0,1.5,-30.2,5.73,2.43,-27.0,30.2
2012-07-23 01:33:00,0.0,1.8815,0.0011,384.41,0.31,43.8,33.9,138.07,31.18,24.65,36.42,0.93,9.69,-26.42,-47,546,-936,26.1,19.1,0.7,26.0,1.5,-30.2,5.73,2.44,-27.0,30.2
2012-07-23 01:34:00,0.0,1.8821,0.0010,383.92,0.27,47.5,35.4,138.06,31.19,24.65,36.42,0.92,10.02,-26.41,-47,546,-936,26.1,19.7,1.1,26.0,1.5,-30.2,5.73,2.44,-27.0,30.2
2012-07-23 01:35:00,0.0,1.8836,0.0010,383.50,0.38,39.1,36.5,138.06,31.19,24.64,36.42,0.90,10.35,-26.40,-47,546,-936,26.1,20.3,1.5,26.0,1.5,-30.2,5.73,2.44,-27.0,30.2
2012-07-23 01:36:00,0.0,1.8831,0.0010,383.66,0.33,43.7,36.3,138.07,31.19,24.65,36.42,0.93,10.67,-26.38,-47,546,-936,26.1,20.0,1.3,26.0,1.5,-30.2,5.73,2.44,-27.0,30.2
2012-07-23 01:37:00,0.0,1.8819,0.0011,384.06,0.39,43.4,32.3,138.06,31.19,24.65,36.42,0.92,10.97,-26.38,-47,546,-936,26.1,19.4,0.9,26.0,1.5,-30.2,5.73,2.45,-27.0,30.2
2012-07-23 01:38:00,0.0,1.8814,0.0010,384.42,0.27,43.7,31.4,138.06,31.20,24.65,36.43,0.93,11.26,-26.37,-47,546,-937,26.1,18.9,0.6,26.0,1.5,-30.1,5.73,2.45,-27.0,30.3
2012-07-23 01:39:00,0.0,1.8810,0.0011,384.51,0.35,43.5,31.2,138.06,31.20,24.65,36.43,0.93,11.54,-26.35,-47,546,-937,26.1,19.0,0.6,26.1,1.5,-30.2,5.73,2.45,-27.0,30.3
2012-07-23 01:40:00,0.0,1.8833,0.0015,384.01,0.30,37.8,35.0,138.06,31.20,24.65,36.42,0.94,11.82,-26.35,-47,546,-937,26.1,19.7,1.2,26.1,1.5,-30.2,5.73,2.44,-27.0,30.2
2012-07-23 01:41:00,0.0,1.8837,0.0011,383.86,0.38,33.0,28.6,138.06,31.20,24.65,36.42,0.92,12.08,-26.34,-47,546,-937,26.1,19.7,1.2,26.1,1.5,-30.1,5.73,2.44,-27.0,30.2
2012-07-23 01:42:00,0.0,1.8835,0.0014,383.81,0.34,31.3,28.9,138.06,31.21,24.65,36.42,0.95,12.34,-26.33,-47,546,-937,26.1,19.9,1.3,26.1,1.5,-30.2,5.73,2.44,-27.0,30.3
2012-07-23 01:43:00,0.0,1.8823,0.0011,384.29,0.48,38.8,32.5,138.06,31.21,24.65,36.42,0.94,12.57,-26.32,-47,546,-937,26.1,19.2,0.9,26.1,1.5,-30.2,5.73,2.43,-27.0,30.3
2012-07-23 01:44:00,0.0,1.8832,0.0012,384.08,0.30,47.9,34.5,138.06,31.21,24.65,36.42,0.94,12.81,-26.31,-47,546,-937,26.1,19.8,1.3,26.1,1.5,-30.1,5.73,2.43,-27.0,30.3
2012-07-23 01:45:00,0.0,1.8824,0.0012,384.15,0.35,48.5,34.2,138.06,31.21,24.65,36.42,0.94,13.03,-26.30,-47,546,-937,26.1,19.3,0.9,26.1,1.5,-30.2,5.73,2.43,-27.0,30.3
2012-07-23 01:46:00,0.0,1.8834,0.0015,384.19,0.30,45.7,33.6,138.06,31.21,24.65,36.41,0.93,13.25,-26.30,-47,546,-937,26.1,19.1,0.7,26.1,1.5,-30.2,5.73,2.44,-27.0,30.3
2012-07-23 01:47:00,0.0,1.8812,0.0011,384.94,0.33,40.0,34.7,138.06,31.21,24.65,36.42,0.94,13.45,-26.29,-47,546,-937,26.1,18.2,0.1,26.1,1.5,-30.1,5.73,2.45,-27.0,30.3
2012-07-23 01:48:00,0.0,1.8816,0.0011,384.64,0.33,49.3,31.0,138.06,31.22,24.65,36.42,0.94,13.65,-26.29,-47,546,-937,26.1,18.5,0.4,26.1,1.5,-30.2,5.73,2.44,-27.0,30.3
2012-07-23 01:49:00,0.0,1.8817,0.0012,384.48,0.33,38.1,32.6,138.06,31.22,24.65,36.43,0.94,13.84,-26.28,-47,546,-937,26.2,18.7,0.5,26.1,1.5,-30.1,5.73,2.44,-26.9,30.4
2012-07-23 01:50:00,0.0,1.8818,0.0011,384.58,0.28,35.6,30.3,138.06,31.22,24.65,36.42,0.95,14.02,-26.27,-47,546,-937,26.2,18.3,0.2,26.2,1.5,-30.1,5.73,2.44,-27.0,30.4
2012-07-23 01:51:00,0.0,1.8811,0.0009,384.99,0.24,49.4,36.7,138.06,31.23,24.65,36.42,0.95,14.20,-26.27,-47,546,-937,26.2,17.9,-0.1,26.1,1.5,-30.1,5.73,2.43,-27.0,30.4
2012-07-23 01:52:00,0.0,1.8809,0.0010,385.01,0.34,45.7,35.4,138.06,31.23,24.65,36.42,0.95,14.37,-26.26,-47,546,-936,26.2,17.8,-0.1,26.2,1.5,-30.1,5.73,2.44,-27.0,30.3
2012-07-23 01:53:00,0.0,1.8811,0.0010,385.04,0.31,36.6,31.4,138.06,31.23,24.65,36.42,0.94,14.53,-26.25,-47,546,-936,26.2,17.7,-0.2,26.2,1.5,-30.1,5.73,2.43,-27.0,30.4
2012-07-23 01:54:00,0.0,1.8816,0.0009,384.97,0.32,44.5,34.5,138.06,31.23,24.65,36.42,0.95,14.69,-26.25,-47,546,-936,26.2,17.9,-0.1,26.1,1.5,-30.1,5.73,2.43,-27.0,30.3
2012-07-23 01:55:00,0.0,1.8815,0.0011,384.76,0.46,46.8,40.3,138.06,31.24,24.65,36.42,0.95,14.83,-26.24,-47,546,-936,26.2,18.1,0.1,26.2,1.5,-30.1,5.73,2.43,-27.0,30.4
2012-07-23 01:56:00,0.0,1.8808,0.0011,385.08,0.29,42.3,29.8,138.06,31.24,24.65,36.42,0.95,14.98,-26.24,-47,547,-936,26.2,18.1,0.1,26.2,1.5,-30.1,5.73,2.44,-26.9,30.4
2012-07-23 01:57:00,0.0,1.8815,0.0010,384.80,0.31,44.8,31.4,138.06,31.24,24.65,36.42,0.95,15.11,-26.24,-47,546,-936,26.2,18.4,0.3,26.2,1.5,-30.1,5.73,2.44,-26.9,30.4
2012-07-23 01:58:00,0.0,1.8819,0.0010,384.82,0.35,45.0,37.1,138.06,31.25,24.65,36.42,0.96,15.24,-26.23,-47,547,-936,26.2,18.3,0.2,26.2,1.5,-30.1,5.73,2.45,-26.9,30.4
2012-07-23 01:59:00,0.0,1.8821,0.0013,384.73,0.36,35.7,31.3,138.06,31.25,24.65,36.42,0.94,15.37,-26.22,-47,547,-936,26.2,18.3,0.2,26.2,1.4,-30.3,5.73,2.44,-26.9,30.4
2012-07-23 02:00:00,0.0,1.8816,0.0010,384.87,0.27,42.6,32.7,138.06,31.25,24.65,36.42,0.94,15.49,-26.21,-47,546,-936,26.2,18.2,0.2,26.2,1.4,-30.5,5.73,2.44,-26.9,30.4
2012-07-23 02:01:00,0.0,1.8819,0.0011,384.84,0.34,50.8,34.5,138.06,31.26,24.65,36.43,0.95,15.60,-26.21,-47,547,-936,26.3,17.9,-0.0,26.2,1.4,-30.7,5.73,2.43,-26.9,30.4
2012-07-23 02:02:00,0.0,1.8823,0.0012,384.78,0.36,41.9,31.7,138.06,31.26,24.64,36.43,0.94,15.72,-26.20,-47,547,-936,26.3,17.9,-0.0,26.2,1.4,-30.7,5.73,2.43,-26.9,30.5
2012-07-23 02:03:00,0.0,1.8820,0.0011,384.70,0.39,35.5,29.4,138.06,31.26,24.65,36.43,0.92,15.82,-26.20,-47,547,-936,26.3,18.3,0.3,26.2,1.4,-30.7,5.73,2.42,-26.9,30.4
2012-07-23 02:04:00,0.0,1.8824,0.0009,384.41,0.34,47.9,34.1,138.06,31.27,24.65,36.42,0.94,15.92,-26.19,-47,547,-936,26.3,18.7,0.6,26.2,1.4,-30.6,5.73,2.43,-26.9,30.5
2012-07-23 02:05:00,0.0,1.8818,0.0012,384.91,0.32,52.7,33.7,138.06,31.27,24.65,36.42,0.93,16.01,-26.19,-47,547,-936,26.3,17.6,-0.2,26.2,1.4,-30.7,5.73,2.44,-26.9,30.4
2012-07-23 02:06:00,0.0,1.8816,0.0009,385.25,0.26,46.8,35.5,138.06,31.27,24.65,36.42,0.94,16.11,-26.18,-47,547,-936,26.3,17.4,-0.4,26.2,1.4,-30.7,5.73,2.44,-26.9,30.5
2012-07-23 02:07:00,0.0,1.8825,0.0010,384.81,0.32,43.2,32.5,138.06,31.28,24.65,36.42,0.92,16.19,-26.18,-47,547,-936,26.3,18.2,0.2,26.3,1.4,-30.6,5.73,2.44,-26.9,30.5
2012-07-23 02:08:00,0.0,1.8815,0.0012,385.03,0.52,40.8,32.8,138.06,31.28,24.65,36.42,0.94,16.28,-26.17,-47,547,-936,26.3,17.3,-0.5,26.3,1.4,-30.7,5.73,2.44,-26.9,30.5
2012-07-23 02:09:00,0.0,1.8799,0.0012,385.35,0.29,43.1,32.5,138.06,31.28,24.65,36.42,0.95,16.36,-26.17,-47,547,-936,26.3,17.3,-0.5,26.3,1.4,-30.6,5.73,2.43,-26.9,30.5
2012-07-23 02:10:00,0.0,1.8819,0.0011,384.99,0.27,39.4,30.9,138.06,31.29,24.65,36.42,0.93,16.44,-26.16,-47,547,-936,26.3,17.5,-0.3,26.3,1.4,-30.6,5.73,2.42,-26.9,30.5
2012-07-23 02:11:00,0.0,1.8813,0.0012,385.12,0.33,46.9,32.2,138.06,31.29,24.65,36.42,0.92,16.51,-26.16,-47,547,-936,26.3,17.4,-0.4,26.3,1.4,-30.7,5.73,2.42,-26.9,30.4
2012-07-23 02:12:00,0.0,1.8814,0.0011,385.16,0.36,47.2,37.5,138.06,31.30,24.65,36.42,0.94,16.59,-26.15,-47,547,-936,26.4,17.1,-0.6,26.3,1.4,-30.6,5.73,2.43,-26.9,30.4
2012-07-23 02:13:00,0.0,1.8811,0.0011,385.34,0.29,48.0,30.1,138.06,31.30,24.65,36.42,0.94,16.66,-26.15,-47,547,-936,26.3,16.8,-0.8,26.3,1.4,-30.6,5.73,2.43,-26.9,30.5
2012-07-23 02:14:00,0.0,1.8814,0.0010,385.17,0.34,46.3,35.6,138.06,31.30,24.65,36.42,0.93,16.72,-26.15,-47,547,-936,26.3,17.0,-0.6,26.3,1.4,-30.6,5.73,2.43,-26.9,30.5
2012-07-23 02:15:00,0.0,1.8814,0.0009,384.93,0.38,46.9,36.6,138.06,31.31,24.65,36.44,0.94,16.78,-26.14,-47,547,-936,26.3,17.2,-0.5,26.3,1.4,-30.7,5.73,2.44,-26.9,30.5
2012-07-23 02:16:00,0.0,1.8811,0.0013,385.12,0.28,44.1,33.4,138.06,31.31,24.65,36.42,0.94,16.84,-26.13,-47,547,-936,26.3,17.5,-0.2,26.4,1.4,-30.6,5.73,2.44,-26.9,30.6
2012-07-23 02:17:00,0.0,1.8821,0.0011,384.89,0.27,45.6,29.3,138.06,31.32,24.65,36.42,0.95,16.90,-26.13,-47,547,-936,26.4,17.9,0.0,26.3,1.4,-30.7,5.73,2.44,-26.9,30.6
2012-07-23 02:18:00,0.0,1.8820,0.0016,384.94,0.28,43.4,33.2,138.06,31.32,24.65,36.42,0.94,16.96,-26.13,-47,547,-936,26.4,17.5,-0.2,26.4,1.4,-30.7,5.73,2.43,-26.9,30.6
2012-07-23 02:19:00,0.0,1.8808,0.0012,385.19,0.31,42.0,31.1,138.06,31.32,24.65,36.42,0.93,17.01,-26.13,-47,547,-936,26.4,17.4,-0.3,26.4,1.4,-30.7,5.73,2.42,-26.9,30.6
2012-07-23 02:20:00,0.0,1.8815,0.0011,385.02,0.34,51.1,35.1,138.06,31.33,24.65,36.42,0.94,17.06,-26.12,-47,547,-936,26.4,17.5,-0.2,26.4,1.4,-30.8,5.73,2.42,-26.9,30.6